When you browse on this site, cookies collect data to enhance your experience and personalize the content and advertising you see.
Visit our Privacy Policy to learn more. By continuing to use the site, you agree to this use of cookies and data.

Hourly Weather Wien

Today, 13 August, Thursday

Time Temperature Precipitation Wind Pressure Humidity
00:00 +24°C° 0 mm 1 mps 745 mmHg 59%
01:00 +23°C° 0 mm 1 mps 745 mmHg 61%
02:00 +23°C° 0 mm 1 mps 744 mmHg 63%
03:00 +21°C° 0 mm 2 mps 744 mmHg 66%
04:00 +21°C° 0 mm 2 mps 744 mmHg 68%
05:00 +21°C° 0 mm 2 mps 744 mmHg 67%
06:00 +23°C° 0 mm 2 mps 744 mmHg 66%
07:00 +24°C° 0 mm 3 mps 744 mmHg 65%
08:00 +26°C° 0 mm 3 mps 744 mmHg 60%
09:00 +28°C° 0 mm 3 mps 744 mmHg 55%
10:00 +30°C° 0 mm 4 mps 744 mmHg 51%
11:00 +30°C° 0 mm 4 mps 744 mmHg 48%
12:00 +32°C° 0 mm 4 mps 743 mmHg 46%
13:00 +33°C° 0 mm 4 mps 743 mmHg 44%
14:00 +33°C° 0 mm 4 mps 743 mmHg 45%
15:00 +33°C° 0 mm 4 mps 742 mmHg 45%
16:00 +33°C° 0 mm 4 mps 742 mmHg 45%
17:00 +31°C° 0.1 mm 3 mps 742 mmHg 51%
18:00 +29°C° 0.1 mm 3 mps 742 mmHg 57%
19:00 +28°C° 0.1 mm 2 mps 742 mmHg 62%
20:00 +27°C° 0.9 mm 2 mps 742 mmHg 66%
21:00 +26°C° 0.9 mm 2 mps 742 mmHg 70%
22:00 +25°C° 0.9 mm 2 mps 742 mmHg 75%
23:00 +24°C° 0.3 mm 2 mps 742 mmHg 76%

Tomorrow, 14 August, Friday

Time Temperature Precipitation Wind Pressure Humidity
00:00 +24°C° 0.3 mm 1 mps 742 mmHg 78%
01:00 +23°C° 0.3 mm 1 mps 742 mmHg 79%
02:00 +23°C° 0.1 mm 1 mps 742 mmHg 79%
03:00 +23°C° 0.1 mm 1 mps 742 mmHg 79%
04:00 +23°C° 0.1 mm 1 mps 742 mmHg 80%
05:00 +23°C° 0 mm 1 mps 742 mmHg 79%
06:00 +24°C° 0 mm 1 mps 742 mmHg 78%
07:00 +24°C° 0 mm 1 mps 742 mmHg 77%
08:00 +25°C° 0 mm 1 mps 742 mmHg 72%
09:00 +26°C° 0 mm 1 mps 742 mmHg 68%
10:00 +27°C° 0 mm 1 mps 742 mmHg 63%
11:00 +28°C° 0.6 mm 2 mps 742 mmHg 62%
12:00 +28°C° 0.6 mm 2 mps 742 mmHg 60%
13:00 +28°C° 0.6 mm 3 mps 741 mmHg 59%
14:00 +27°C° 0.5 mm 3 mps 741 mmHg 62%
15:00 +27°C° 0.5 mm 4 mps 741 mmHg 65%
16:00 +26°C° 0.5 mm 4 mps 741 mmHg 68%
17:00 +25°C° 0.2 mm 4 mps 741 mmHg 71%
18:00 +24°C° 0.2 mm 3 mps 741 mmHg 73%
19:00 +22°C° 0.2 mm 3 mps 741 mmHg 76%
20:00 +22°C° 0.2 mm 3 mps 741 mmHg 77%
21:00 +22°C° 0.2 mm 3 mps 741 mmHg 78%
22:00 +22°C° 0.2 mm 3 mps 742 mmHg 80%
23:00 +21°C° 0.1 mm 3 mps 742 mmHg 81%

Day after tomorrow, 15 August, Saturday

Time Temperature Precipitation Wind Pressure Humidity
00:00 +21°C° 0.1 mm 2 mps 742 mmHg 82%
01:00 +21°C° 0.1 mm 2 mps 742 mmHg 84%
02:00 +21°C° 0.1 mm 2 mps 742 mmHg 84%
03:00 +21°C° 0.1 mm 2 mps 741 mmHg 84%
04:00 +22°C° 0.1 mm 1 mps 741 mmHg 85%
05:00 +21°C° 0 mm 2 mps 741 mmHg 83%
06:00 +21°C° 0 mm 2 mps 742 mmHg 82%
07:00 +21°C° 0 mm 2 mps 742 mmHg 81%
08:00 +23°C° 0.1 mm 2 mps 742 mmHg 77%
09:00 +24°C° 0.1 mm 2 mps 742 mmHg 74%
10:00 +25°C° 0.1 mm 3 mps 742 mmHg 70%
11:00 +26°C° 0.4 mm 3 mps 742 mmHg 65%
12:00 +27°C° 0.4 mm 3 mps 742 mmHg 61%
13:00 +29°C° 0.4 mm 3 mps 742 mmHg 56%
14:00 +28°C° 0.7 mm 2 mps 742 mmHg 57%
15:00 +28°C° 0.7 mm 2 mps 742 mmHg 58%
16:00 +28°C° 0.7 mm 2 mps 741 mmHg 58%
17:00 +27°C° 0.8 mm 2 mps 741 mmHg 64%
18:00 +25°C° 0.8 mm 1 mps 741 mmHg 70%
19:00 +24°C° 0.8 mm 1 mps 741 mmHg 76%
20:00 +24°C° 0.4 mm 1 mps 742 mmHg 78%
21:00 +23°C° 0.4 mm 1 mps 742 mmHg 79%
22:00 +22°C° 0.4 mm 1 mps 742 mmHg 81%
23:00 +22°C° 0.2 mm 1 mps 742 mmHg 82%

16 August, Sunday

Time Temperature Precipitation Wind Pressure Humidity
00:00 +21°C° 0.2 mm 1 mps 742 mmHg 83%
01:00 +21°C° 0.2 mm 1 mps 742 mmHg 85%
02:00 +20°C° 0.2 mm 1 mps 742 mmHg 85%
03:00 +20°C° 0.2 mm 1 mps 742 mmHg 86%
04:00 +19°C° 0.2 mm 1 mps 742 mmHg 87%
05:00 +20°C° 0 mm 1 mps 742 mmHg 84%
06:00 +20°C° 0 mm 1 mps 742 mmHg 81%
07:00 +20°C° 0 mm 2 mps 742 mmHg 78%
08:00 +21°C° 0 mm 2 mps 743 mmHg 72%
09:00 +24°C° 0 mm 2 mps 743 mmHg 66%
10:00 +25°C° 0 mm 2 mps 743 mmHg 60%
11:00 +27°C° 0 mm 2 mps 743 mmHg 56%
12:00 +28°C° 0 mm 1 mps 742 mmHg 51%
13:00 +29°C° 0 mm 1 mps 742 mmHg 47%
14:00 +29°C° 0 mm 1 mps 742 mmHg 46%
15:00 +29°C° 0 mm 1 mps 742 mmHg 45%
16:00 +29°C° 0 mm 1 mps 742 mmHg 44%
17:00 +28°C° 0 mm 1 mps 742 mmHg 50%
18:00 +27°C° 0 mm 1 mps 742 mmHg 55%
19:00 +25°C° 0 mm 1 mps 742 mmHg 60%
20:00 +24°C° 0 mm 1 mps 742 mmHg 63%
21:00 +24°C° 0 mm 1 mps 742 mmHg 67%
22:00 +23°C° 0 mm 1 mps 742 mmHg 70%
23:00 +22°C° 0 mm 1 mps 742 mmHg 72%

17 August, Monday

Time Temperature Precipitation Wind Pressure Humidity
00:00 +22°C° 0 mm 1 mps 742 mmHg 75%
01:00 +22°C° 0 mm 1 mps 742 mmHg 77%
02:00 +21°C° 0 mm 1 mps 742 mmHg 79%
03:00 +21°C° 0 mm 1 mps 742 mmHg 81%
04:00 +20°C° 0 mm 1 mps 742 mmHg 82%
05:00 +20°C° 0 mm 2 mps 742 mmHg 80%
06:00 +21°C° 0 mm 2 mps 742 mmHg 77%
07:00 +23°C° 0 mm 2 mps 742 mmHg 74%
08:00 +24°C° 0 mm 3 mps 741 mmHg 68%
09:00 +26°C° 0 mm 4 mps 741 mmHg 62%
10:00 +28°C° 0 mm 4 mps 741 mmHg 56%
11:00 +29°C° 0 mm 5 mps 741 mmHg 53%
12:00 +30°C° 0 mm 5 mps 741 mmHg 50%
13:00 +32°C° 0 mm 5 mps 740 mmHg 46%
14:00 +32°C° 0 mm 5 mps 740 mmHg 47%
15:00 +32°C° 0 mm 5 mps 739 mmHg 48%
16:00 +32°C° 0 mm 6 mps 739 mmHg 49%
17:00 +29°C° 0 mm 5 mps 739 mmHg 54%
18:00 +28°C° 0 mm 4 mps 739 mmHg 58%
19:00 +27°C° 0 mm 4 mps 739 mmHg 63%
20:00 +26°C° 0.4 mm 3 mps 739 mmHg 66%
21:00 +25°C° 0.4 mm 3 mps 739 mmHg 69%
22:00 +24°C° 0.4 mm 3 mps 740 mmHg 72%
23:00 +22°C° 0.4 mm 4 mps 740 mmHg 75%

18 August, Tuesday

Time Temperature Precipitation Wind Pressure Humidity
00:00 +22°C° 0.4 mm 4 mps 740 mmHg 78%
01:00 +21°C° 0.4 mm 4 mps 740 mmHg 82%
02:00 +21°C° 0.2 mm 4 mps 740 mmHg 82%
03:00 +20°C° 0.2 mm 4 mps 740 mmHg 83%
04:00 +20°C° 0.2 mm 4 mps 740 mmHg 84%
05:00 +20°C° 0.2 mm 4 mps 740 mmHg 83%
06:00 +21°C° 0.2 mm 4 mps 740 mmHg 81%
07:00 +21°C° 0.2 mm 4 mps 740 mmHg 80%
08:00 +21°C° 0.1 mm 4 mps 740 mmHg 79%
09:00 +21°C° 0.1 mm 5 mps 740 mmHg 77%
10:00 +21°C° 0.1 mm 5 mps 741 mmHg 76%
11:00 +21°C° 0.3 mm 4 mps 741 mmHg 78%
12:00 +21°C° 0.3 mm 4 mps 741 mmHg 80%
13:00 +20°C° 0.3 mm 4 mps 741 mmHg 82%
14:00 +20°C° 0.5 mm 4 mps 741 mmHg 82%
15:00 +20°C° 0.5 mm 4 mps 741 mmHg 83%
16:00 +20°C° 0.5 mm 5 mps 741 mmHg 84%
17:00 +20°C° 0.1 mm 5 mps 741 mmHg 83%
18:00 +20°C° 0.1 mm 5 mps 741 mmHg 82%
19:00 +20°C° 0.1 mm 5 mps 741 mmHg 82%
20:00 +20°C° 0 mm 5 mps 741 mmHg 81%
21:00 +20°C° 0 mm 5 mps 741 mmHg 81%
22:00 +20°C° 0 mm 5 mps 741 mmHg 80%
23:00 +20°C° 0 mm 5 mps 741 mmHg 80%
Show more